| time (UTC) | temp F | wind direction | speed MPH | gust MPH | rain 1hr in | rain 24hr in | rain mn in | humidity % | barometer mb |
| 20260906180157 | 95 | 69 | 2.0 | 2.0 | 0.00 | 0.00 | 0.00 | 53 | 1016.0 |
| 20260906175654 | 95 | 111 | 3.0 | 5.0 | 0.00 | 0.00 | 0.00 | 56 | 1015.6 |
| 20260906175150 | 93 | 170 | 3.0 | 3.0 | 0.00 | 0.00 | 0.00 | 55 | 1016.0 |
| 20260906174648 | 93 | 124 | 5.0 | 6.0 | 0.00 | 0.00 | 0.00 | 58 | 1016.2 |
| 20260906174143 | 93 | 103 | 5.0 | 5.0 | 0.00 | 0.00 | 0.00 | 56 | 1016.4 |
| 20260906173639 | 93 | 301 | 1.0 | 5.0 | 0.00 | 0.00 | 0.00 | 57 | 1016.4 |
| 20260906173134 | 92 | 134 | 2.0 | 5.0 | 0.00 | 0.00 | 0.00 | 60 | 1016.2 |
| 20260906172633 | 91 | 89 | 2.0 | 5.0 | 0.00 | 0.00 | 0.00 | 58 | 1016.5 |
| 20260906172129 | 91 | 60 | 2.0 | 3.0 | 0.00 | 0.00 | 0.00 | 60 | 1016.4 |
| 20260906171628 | 91 | 56 | 3.0 | 5.0 | 0.00 | 0.00 | 0.00 | 60 | 1016.6 |
| 20260906171124 | 91 | 108 | 2.0 | 3.0 | 0.00 | 0.00 | 0.00 | 61 | 1016.5 |
| 20260906170620 | 91 | 22 | 3.0 | 3.0 | 0.00 | 0.00 | 0.00 | 59 | 1016.6 |
| 20260906170119 | 90 | 27 | 2.0 | 5.0 | 0.00 | 0.00 | 0.00 | 60 | 1016.7 |
| 20260906165616 | 91 | 116 | 3.0 | 5.0 | 0.00 | 0.00 | 0.00 | 60 | 1016.8 |
| 20260906165111 | 90 | 44 | 3.0 | 6.0 | 0.00 | 0.00 | 0.00 | 60 | 1016.9 |
| 20260906164610 | 90 | 83 | 2.0 | 5.0 | 0.00 | 0.00 | 0.00 | 62 | 1016.7 |
| 20260906164106 | 90 | 208 | 1.0 | 2.0 | 0.00 | 0.00 | 0.00 | 62 | 1016.8 |
| 20260906163601 | 90 | 87 | 3.0 | 5.0 | 0.00 | 0.00 | 0.00 | 61 | 1016.9 |
| 20260906163057 | 90 | 117 | 4.0 | 5.0 | 0.00 | 0.00 | 0.00 | 61 | 1016.7 |
| 20260906162554 | 90 | 115 | 3.0 | 5.0 | 0.00 | 0.00 | 0.00 | 61 | 1017.0 |
| 20260906162049 | 90 | 65 | 2.0 | 5.0 | 0.00 | 0.00 | 0.00 | 60 | 1016.9 |
| 20260906161544 | 90 | 91 | 2.0 | 5.0 | 0.00 | 0.00 | 0.00 | 61 | 1016.9 |
| 20260906161043 | 90 | 187 | 1.0 | 3.0 | 0.00 | 0.00 | 0.00 | 60 | 1016.9 |
| 20260906160542 | 90 | 118 | 2.0 | 3.0 | 0.00 | 0.00 | 0.00 | 59 | 1016.7 |
| 20260906160040 | 91 | 110 | 3.0 | 3.0 | 0.00 | 0.00 | 0.00 | 60 | 1016.8 |
| 20260906155538 | 90 | 276 | 0.0 | 2.0 | 0.00 | 0.00 | 0.00 | 63 | 1017.1 |
| 20260906155034 | 90 | 31 | 1.0 | 2.0 | 0.00 | 0.00 | 0.00 | 60 | 1016.7 |
| 20260906154529 | 89 | 281 | 0.0 | 1.0 | 0.00 | 0.00 | 0.00 | 63 | 1016.6 |
| 20260906154028 | 89 | 300 | 1.0 | 2.0 | 0.00 | 0.00 | 0.00 | 64 | 1016.6 |
| 20260906153527 | 89 | 76 | 1.0 | 2.0 | 0.00 | 0.00 | 0.00 | 64 | 1016.6 |
| 20260906153022 | 89 | 301 | 1.0 | 2.0 | 0.00 | 0.00 | 0.00 | 64 | 1016.4 |
| 20260906152516 | 89 | 224 | 1.0 | 2.0 | 0.00 | 0.00 | 0.00 | 65 | 1016.4 |
| 20260906152016 | 88 | 266 | 1.0 | 1.0 | 0.00 | 0.00 | 0.00 | 66 | 1016.4 |
| 20260906151512 | 88 | 300 | 1.0 | 1.0 | 0.00 | 0.00 | 0.00 | 65 | 1016.3 |
| 20260906151007 | 88 | 307 | 0.0 | 2.0 | 0.00 | 0.00 | 0.00 | 66 | 1016.5 |
| 20260906150502 | 88 | 48 | 2.0 | 3.0 | 0.00 | 0.00 | 0.00 | 66 | 1016.3 |
| 20260906150001 | 87 | 324 | 2.0 | 5.0 | 0.00 | 0.00 | 0.00 | 68 | 1016.2 |
| 20260906145456 | 88 | 84 | 2.0 | 5.0 | 0.00 | 0.00 | 0.00 | 66 | 1016.5 |
| 20260906144955 | 87 | 89 | 3.0 | 5.0 | 0.00 | 0.00 | 0.00 | 68 | 1016.4 |
| 20260906144450 | 87 | 356 | 3.0 | 5.0 | 0.00 | 0.00 | 0.00 | 69 | 1016.4 |
| 20260906143945 | 87 | 16 | 4.0 | 5.0 | 0.00 | 0.00 | 0.00 | 69 | 1016.4 |
| 20260906143441 | 86 | 329 | 3.0 | 6.0 | 0.00 | 0.00 | 0.00 | 71 | 1016.5 |
| 20260906142937 | 86 | 89 | 4.0 | 5.0 | 0.00 | 0.00 | 0.00 | 69 | 1016.4 |
| 20260906142431 | 86 | 34 | 4.0 | 5.0 | 0.00 | 0.00 | 0.00 | 71 | 1016.4 |
| 20260906141926 | 85 | 65 | 2.0 | 5.0 | 0.00 | 0.00 | 0.00 | 72 | 1016.6 |
| 20260906141426 | 84 | 68 | 3.0 | 5.0 | 0.00 | 0.00 | 0.00 | 73 | 1016.4 |
| 20260906140920 | 84 | 307 | 1.0 | 3.0 | 0.00 | 0.00 | 0.00 | 75 | 1016.4 |
| 20260906140414 | 84 | 26 | 3.0 | 5.0 | 0.00 | 0.00 | 0.00 | 74 | 1016.6 |
| 20260906135907 | 83 | 263 | 1.0 | 2.0 | 0.00 | 0.00 | 0.00 | 76 | 1016.5 |
| 20260906135406 | 82 | 303 | 2.0 | 2.0 | 0.00 | 0.00 | 0.00 | 77 | 1016.2 |
| 20260906134902 | 81 | 305 | 3.0 | 3.0 | 0.00 | 0.00 | 0.00 | 77 | 1016.3 |
| 20260906134357 | 81 | 337 | 3.0 | 3.0 | 0.00 | 0.00 | 0.00 | 77 | 1016.5 |
| 20260906133852 | 81 | 275 | 0.0 | 2.0 | 0.00 | 0.00 | 0.00 | 79 | 1016.4 |
| 20260906133348 | 81 | 327 | 3.0 | 3.0 | 0.00 | 0.00 | 0.00 | 79 | 1016.4 |
| 20260906132844 | 81 | 305 | 2.0 | 3.0 | 0.00 | 0.00 | 0.00 | 80 | 1016.2 |
| 20260906132338 | 81 | 286 | 1.0 | 1.0 | 0.00 | 0.00 | 0.00 | 80 | 1016.2 |
| 20260906131834 | 80 | 255 | 0.0 | 1.0 | 0.00 | 0.00 | 0.00 | 81 | 1016.3 |
| 20260906131329 | 81 | 250 | 0.0 | 0.0 | 0.00 | 0.00 | 0.00 | 81 | 1016.4 |
| 20260906130824 | 80 | 250 | 0.0 | 0.0 | 0.00 | 0.00 | 0.00 | 82 | 1016.1 |
| 20260906130318 | 78 | 249 | 0.0 | 0.0 | 0.00 | 0.00 | 0.00 | 85 | 1016.1 |
| 20260906125818 | 77 | 250 | 0.0 | 0.0 | 0.00 | 0.00 | 0.00 | 86 | 1016.0 |
| 20260906125315 | 77 | 250 | 0.0 | 0.0 | 0.00 | 0.00 | 0.00 | 88 | 1015.8 |
| 20260906124810 | 76 | 250 | 0.0 | 0.0 | 0.00 | 0.00 | 0.00 | 92 | 1015.7 |
| 20260906124306 | 74 | 249 | 0.0 | 0.0 | 0.00 | 0.00 | 0.00 | 93 | 1015.9 |
| 20260906123805 | 73 | 249 | 0.0 | 0.0 | 0.00 | 0.00 | 0.00 | 94 | 1015.8 |
| 20260906123300 | 73 | 250 | 0.0 | 0.0 | 0.00 | 0.00 | 0.00 | 95 | 1015.6 |
| 20260906122759 | 72 | 250 | 0.0 | 0.0 | 0.00 | 0.00 | 0.00 | 96 | 1015.6 |
| 20260906122255 | 72 | 250 | 0.0 | 0.0 | 0.00 | 0.00 | 0.00 | 96 | 1015.8 |
| 20260906121752 | 71 | 250 | 0.0 | 0.0 | 0.00 | 0.00 | 0.00 | 96 | 1015.4 |
| 20260906121247 | 71 | 250 | 0.0 | 0.0 | 0.00 | 0.00 | 0.00 | 97 | 1015.5 |
| 20260906120743 | 71 | 250 | 0.0 | 0.0 | 0.00 | 0.00 | 0.00 | 96 | 1015.4 |
| 20260906120240 | 71 | 250 | 0.0 | 0.0 | 0.00 | 0.00 | 0.00 | 96 | 1015.5 |
| 20260906115735 | 71 | 255 | 0.0 | 0.0 | 0.00 | 0.00 | 0.00 | 96 | 1015.6 |
| 20260906115230 | 71 | 255 | 0.0 | 1.0 | 0.00 | 0.00 | 0.00 | 96 | 1015.4 |
| 20260906114729 | 71 | 265 | 0.0 | 0.0 | 0.00 | 0.00 | 0.00 | 96 | 1015.3 |
| 20260906114224 | 71 | 265 | 0.0 | 1.0 | 0.00 | 0.00 | 0.00 | 96 | 1015.2 |
| 20260906113720 | 71 | 253 | 0.0 | 0.0 | 0.00 | 0.00 | 0.00 | 96 | 1015.4 |
| 20260906113219 | 71 | 259 | 0.0 | 0.0 | 0.00 | 0.00 | 0.00 | 96 | 1015.2 |
| 20260906112718 | 71 | 259 | 0.0 | 0.0 | 0.00 | 0.00 | 0.00 | 96 | 1015.3 |
| 20260906112216 | 71 | 247 | 0.0 | 0.0 | 0.00 | 0.00 | 0.00 | 96 | 1015.3 |
| 20260906111715 | 71 | 247 | 0.0 | 0.0 | 0.00 | 0.00 | 0.00 | 96 | 1015.2 |
| 20260906111209 | 71 | 247 | 0.0 | 0.0 | 0.00 | 0.00 | 0.00 | 96 | 1015.2 |
| 20260906110704 | 71 | 253 | 0.0 | 0.0 | 0.00 | 0.00 | 0.00 | 96 | 1015.1 |
| 20260906110200 | 71 | 253 | 0.0 | 1.0 | 0.00 | 0.00 | 0.00 | 95 | 1014.9 |
| 20260906105654 | 71 | 247 | 0.0 | 0.0 | 0.00 | 0.00 | 0.00 | 95 | 1015.2 |
| 20260906105150 | 71 | 259 | 0.0 | 0.0 | 0.00 | 0.00 | 0.00 | 95 | 1014.9 |
| 20260906104649 | 72 | 259 | 0.0 | 0.0 | 0.00 | 0.00 | 0.00 | 95 | 1015.3 |
| 20260906104143 | 72 | 259 | 0.0 | 0.0 | 0.00 | 0.00 | 0.00 | 95 | 1015.2 |
| 20260906103641 | 72 | 259 | 0.0 | 0.0 | 0.00 | 0.00 | 0.00 | 95 | 1015.1 |
| 20260906103136 | 72 | 259 | 0.0 | 0.0 | 0.00 | 0.00 | 0.00 | 94 | 1014.9 |
| 20260906102631 | 72 | 259 | 0.0 | 0.0 | 0.00 | 0.00 | 0.00 | 94 | 1014.9 |
| 20260906102126 | 72 | 259 | 0.0 | 0.0 | 0.00 | 0.00 | 0.00 | 94 | 1014.7 |
| 20260906101626 | 72 | 259 | 0.0 | 0.0 | 0.00 | 0.00 | 0.00 | 94 | 1014.9 |
| 20260906101126 | 73 | 259 | 0.0 | 0.0 | 0.00 | 0.00 | 0.00 | 94 | 1014.9 |
| 20260906100621 | 73 | 259 | 0.0 | 0.0 | 0.00 | 0.00 | 0.00 | 94 | 1014.7 |
| 20260906100122 | 73 | 245 | 0.0 | 0.0 | 0.00 | 0.00 | 0.00 | 94 | 1014.9 |
| 20260906095616 | 73 | 259 | 0.0 | 0.0 | 0.00 | 0.00 | 0.00 | 94 | 1014.8 |
| 20260906095112 | 72 | 235 | 0.0 | 0.0 | 0.00 | 0.00 | 0.00 | 93 | 1014.8 |
| 20260906094610 | 73 | 235 | 0.0 | 0.0 | 0.00 | 0.00 | 0.00 | 93 | 1014.8 |
| 20260906094107 | 73 | 235 | 0.0 | 0.0 | 0.00 | 0.00 | 0.00 | 93 | 1014.8 |
| 20260906093603 | 73 | 235 | 0.0 | 0.0 | 0.00 | 0.00 | 0.00 | 93 | 1014.9 |
| 20260906093057 | 73 | 235 | 0.0 | 0.0 | 0.00 | 0.00 | 0.00 | 94 | 1014.8 |
| 20260906092552 | 73 | 259 | 0.0 | 0.0 | 0.00 | 0.00 | 0.00 | 94 | 1014.9 |
| 20260906092047 | 73 | 247 | 0.0 | 0.0 | 0.00 | 0.00 | 0.00 | 94 | 1014.9 |
| 20260906091543 | 73 | 247 | 0.0 | 0.0 | 0.00 | 0.00 | 0.00 | 93 | 1014.8 |
| 20260906091039 | 73 | 259 | 0.0 | 0.0 | 0.00 | 0.00 | 0.00 | 93 | 1014.7 |
| 20260906090534 | 73 | 245 | 0.0 | 0.0 | 0.00 | 0.00 | 0.00 | 93 | 1014.6 |
| 20260906090034 | 73 | 235 | 0.0 | 1.0 | 0.00 | 0.00 | 0.00 | 93 | 1014.7 |
| 20260906085533 | 73 | 259 | 1.0 | 1.0 | 0.00 | 0.00 | 0.00 | 94 | 1014.4 |
| 20260906085032 | 73 | 235 | 0.0 | 0.0 | 0.00 | 0.00 | 0.00 | 94 | 1014.7 |
| 20260906084527 | 73 | 245 | 0.0 | 0.0 | 0.00 | 0.00 | 0.00 | 94 | 1014.5 |
| 20260906084026 | 73 | 259 | 0.0 | 0.0 | 0.00 | 0.00 | 0.00 | 94 | 1014.4 |
| 20260906083522 | 73 | 259 | 0.0 | 0.0 | 0.00 | 0.00 | 0.00 | 94 | 1014.3 |
| 20260906083021 | 73 | 259 | 0.0 | 0.0 | 0.00 | 0.00 | 0.00 | 93 | 1014.2 |
| 20260906082517 | 73 | 259 | 0.0 | 0.0 | 0.00 | 0.00 | 0.00 | 93 | 1014.2 |
| 20260906082012 | 73 | 259 | 0.0 | 0.0 | 0.00 | 0.00 | 0.00 | 93 | 1014.4 |
| 20260906081508 | 73 | 257 | 0.0 | 1.0 | 0.00 | 0.00 | 0.00 | 94 | 1014.4 |
| 20260906081003 | 73 | 247 | 0.0 | 0.0 | 0.00 | 0.00 | 0.00 | 94 | 1014.4 |
| 20260906080500 | 73 | 247 | 0.0 | 0.0 | 0.00 | 0.00 | 0.00 | 94 | 1014.3 |
| 20260906075955 | 73 | 247 | 0.0 | 0.0 | 0.00 | 0.00 | 0.00 | 93 | 1014.3 |
| 20260906075450 | 73 | 245 | 0.0 | 0.0 | 0.00 | 0.00 | 0.00 | 93 | 1014.2 |
| 20260906074945 | 74 | 245 | 0.0 | 1.0 | 0.00 | 0.00 | 0.00 | 94 | 1014.1 |
| 20260906074439 | 73 | 253 | 0.0 | 0.0 | 0.00 | 0.00 | 0.00 | 94 | 1014.2 |
| 20260906073937 | 73 | 268 | 0.0 | 0.0 | 0.00 | 0.00 | 0.00 | 93 | 1014.3 |
| 20260906073432 | 73 | 252 | 0.0 | 0.0 | 0.00 | 0.00 | 0.00 | 93 | 1014.4 |
| 20260906072929 | 74 | 252 | 0.0 | 0.0 | 0.00 | 0.00 | 0.00 | 93 | 1014.2 |
| 20260906072424 | 74 | 252 | 0.0 | 0.0 | 0.00 | 0.00 | 0.00 | 93 | 1014.3 |
| 20260906071920 | 73 | 253 | 0.0 | 0.0 | 0.00 | 0.00 | 0.00 | 93 | 1014.2 |
| 20260906071415 | 74 | 252 | 0.0 | 0.0 | 0.00 | 0.00 | 0.00 | 92 | 1014.1 |
| 20260906070911 | 74 | 252 | 0.0 | 0.0 | 0.00 | 0.00 | 0.00 | 92 | 1014.4 |
| 20260906070407 | 74 | 253 | 0.0 | 0.0 | 0.00 | 0.00 | 0.00 | 92 | 1014.3 |
| 20260906065903 | 74 | 268 | 0.0 | 0.0 | 0.00 | 0.00 | 0.00 | 92 | 1014.4 |
| 20260906065356 | 74 | 261 | 0.0 | 0.0 | 0.00 | 0.00 | 0.00 | 92 | 1014.5 |
| 20260906064853 | 74 | 257 | 0.0 | 0.0 | 0.00 | 0.00 | 0.00 | 92 | 1014.5 |
| 20260906064349 | 75 | 259 | 0.0 | 0.0 | 0.00 | 0.00 | 0.00 | 91 | 1014.5 |
| 20260906063848 | 75 | 257 | 0.0 | 0.0 | 0.00 | 0.00 | 0.00 | 91 | 1014.6 |
| 20260906063344 | 75 | 260 | 0.0 | 0.0 | 0.00 | 0.00 | 0.00 | 90 | 1014.5 |
| 20260906062839 | 75 | 257 | 0.0 | 0.0 | 0.00 | 0.00 | 0.00 | 90 | 1014.8 |
| 20260906062338 | 75 | 257 | 0.0 | 0.0 | 0.00 | 0.00 | 0.00 | 89 | 1014.6 |
| 20260906061833 | 75 | 257 | 0.0 | 0.0 | 0.00 | 0.00 | 0.00 | 89 | 1014.6 |
| 20260906061330 | 76 | 263 | 0.0 | 0.0 | 0.00 | 0.00 | 0.00 | 89 | 1014.7 |
| 20260906060824 | 76 | 264 | 0.0 | 1.0 | 0.00 | 0.00 | 0.00 | 89 | 1014.5 |
| 20260906060323 | 77 | 266 | 0.0 | 0.0 | 0.00 | 0.00 | 0.00 | 88 | 1014.7 |
| 20260906055818 | 77 | 279 | 1.0 | 2.0 | 0.00 | 0.00 | 0.00 | 87 | 1014.7 |
| 20260906055313 | 76 | 256 | 1.0 | 1.0 | 0.00 | 0.00 | 0.00 | 88 | 1014.6 |
| 20260906054809 | 76 | 254 | 0.0 | 0.0 | 0.00 | 0.00 | 0.00 | 88 | 1014.6 |
| 20260906054304 | 76 | 254 | 0.0 | 0.0 | 0.00 | 0.00 | 0.00 | 88 | 1014.7 |
| 20260906053800 | 76 | 254 | 0.0 | 0.0 | 0.00 | 0.00 | 0.00 | 88 | 1014.6 |
| 20260906053255 | 76 | 254 | 0.0 | 0.0 | 0.00 | 0.00 | 0.00 | 89 | 1014.8 |
| 20260906052750 | 76 | 254 | 0.0 | 1.0 | 0.00 | 0.00 | 0.00 | 90 | 1014.8 |
| 20260906052246 | 75 | 254 | 0.0 | 0.0 | 0.00 | 0.00 | 0.00 | 91 | 1014.6 |
| 20260906051744 | 75 | 254 | 0.0 | 0.0 | 0.00 | 0.00 | 0.00 | 91 | 1014.8 |
| 20260906051243 | 76 | 254 | 0.0 | 0.0 | 0.00 | 0.00 | 0.00 | 91 | 1014.5 |
| 20260906050738 | 76 | 254 | 0.0 | 0.0 | 0.00 | 0.00 | 0.00 | 91 | 1014.6 |
| 20260906050233 | 75 | 254 | 0.0 | 0.0 | 0.00 | 0.00 | 0.00 | 91 | 1014.6 |
| 20260906045732 | 75 | 254 | 0.0 | 0.0 | 0.00 | 0.00 | 0.00 | 91 | 1014.7 |
| 20260906045227 | 76 | 254 | 0.0 | 0.0 | 0.00 | 0.00 | 0.00 | 91 | 1014.6 |
| 20260906044723 | 76 | 254 | 0.0 | 0.0 | 0.00 | 0.00 | 0.00 | 91 | 1014.5 |
| 20260906044218 | 76 | 254 | 0.0 | 0.0 | 0.00 | 0.00 | 0.00 | 91 | 1014.8 |
| 20260906043714 | 76 | 254 | 0.0 | 0.0 | 0.00 | 0.00 | 0.00 | 91 | 1014.6 |
| 20260906043210 | 76 | 254 | 0.0 | 0.0 | 0.00 | 0.00 | 0.00 | 90 | 1014.6 |
| 20260906042709 | 76 | 254 | 0.0 | 0.0 | 0.00 | 0.00 | 0.00 | 90 | 1014.8 |
| 20260906042209 | 77 | 254 | 0.0 | 0.0 | 0.00 | 0.00 | 0.00 | 90 | 1014.5 |
| 20260906041704 | 77 | 254 | 0.0 | 0.0 | 0.00 | 0.00 | 0.00 | 89 | 1014.6 |
| 20260906041159 | 77 | 254 | 0.0 | 0.0 | 0.00 | 0.00 | 0.00 | 89 | 1014.7 |
| 20260906040655 | 77 | 254 | 0.0 | 0.0 | 0.00 | 0.00 | 0.00 | 89 | 1014.6 |
| 20260906040150 | 77 | 254 | 0.0 | 0.0 | 0.00 | 0.00 | 0.00 | 88 | 1014.5 |
| 20260906035645 | 77 | 254 | 0.0 | 0.0 | 0.00 | 0.00 | 0.00 | 88 | 1014.6 |
| 20260906035141 | 77 | 254 | 0.0 | 0.0 | 0.00 | 0.00 | 0.00 | 89 | 1014.5 |
| 20260906034635 | 77 | 254 | 0.0 | 0.0 | 0.00 | 0.00 | 0.00 | 88 | 1014.5 |
| 20260906034130 | 77 | 254 | 0.0 | 0.0 | 0.00 | 0.00 | 0.00 | 88 | 1014.2 |
| 20260906033625 | 77 | 254 | 0.0 | 0.0 | 0.00 | 0.00 | 0.00 | 88 | 1014.3 |
| 20260906033120 | 78 | 254 | 0.0 | 0.0 | 0.00 | 0.00 | 0.00 | 87 | 1014.3 |
| 20260906032617 | 78 | 254 | 0.0 | 0.0 | 0.00 | 0.00 | 0.00 | 87 | 1014.1 |
| 20260906032116 | 78 | 254 | 0.0 | 0.0 | 0.00 | 0.00 | 0.00 | 86 | 1014.2 |
| 20260906031612 | 78 | 254 | 0.0 | 1.0 | 0.00 | 0.00 | 0.00 | 85 | 1014.2 |
| 20260906031107 | 78 | 254 | 0.0 | 0.0 | 0.00 | 0.00 | 0.00 | 85 | 1014.2 |
| 20260906030606 | 79 | 254 | 0.0 | 0.0 | 0.00 | 0.00 | 0.00 | 84 | 1014.3 |
| 20260906030101 | 79 | 254 | 0.0 | 1.0 | 0.00 | 0.00 | 0.00 | 84 | 1013.9 |
| 20260906025556 | 79 | 254 | 0.0 | 0.0 | 0.00 | 0.00 | 0.00 | 85 | 1013.8 |
| 20260906025054 | 79 | 254 | 0.0 | 0.0 | 0.00 | 0.00 | 0.00 | 84 | 1013.8 |
| 20260906024550 | 79 | 254 | 0.0 | 0.0 | 0.00 | 0.00 | 0.00 | 83 | 1014.0 |
| 20260906024050 | 80 | 254 | 0.0 | 0.0 | 0.00 | 0.00 | 0.00 | 82 | 1013.6 |
| 20260906023546 | 80 | 254 | 0.0 | 0.0 | 0.00 | 0.00 | 0.00 | 83 | 1013.7 |
| 20260906023046 | 80 | 254 | 0.0 | 0.0 | 0.00 | 0.00 | 0.00 | 82 | 1013.7 |
| 20260906022541 | 81 | 254 | 0.0 | 0.0 | 0.00 | 0.00 | 0.00 | 80 | 1013.5 |
| 20260906022037 | 81 | 254 | 0.0 | 1.0 | 0.00 | 0.00 | 0.00 | 80 | 1013.5 |
| 20260906021532 | 81 | 253 | 0.0 | 0.0 | 0.00 | 0.00 | 0.00 | 81 | 1013.4 |
| 20260906021031 | 82 | 253 | 0.0 | 1.0 | 0.00 | 0.00 | 0.00 | 79 | 1013.0 |
| 20260906020531 | 82 | 253 | 0.0 | 0.0 | 0.00 | 0.00 | 0.00 | 79 | 1013.2 |
| 20260906020030 | 82 | 253 | 0.0 | 0.0 | 0.00 | 0.00 | 0.00 | 78 | 1013.1 |
| 20260906015530 | 83 | 253 | 0.0 | 1.0 | 0.00 | 0.00 | 0.00 | 77 | 1013.3 |
| 20260906015030 | 83 | 253 | 0.0 | 0.0 | 0.00 | 0.00 | 0.00 | 78 | 1013.0 |
| 20260906014525 | 83 | 253 | 0.0 | 1.0 | 0.00 | 0.00 | 0.00 | 77 | 1013.0 |
| 20260906014021 | 82 | 253 | 1.0 | 1.0 | 0.00 | 0.00 | 0.00 | 79 | 1013.1 |
| 20260906013516 | 82 | 254 | 1.0 | 1.0 | 0.00 | 0.00 | 0.00 | 81 | 1013.0 |
| 20260906013012 | 82 | 268 | 1.0 | 2.0 | 0.00 | 0.00 | 0.00 | 80 | 1012.9 |
| 20260906012507 | 83 | 259 | 0.0 | 1.0 | 0.00 | 0.00 | 0.00 | 78 | 1012.7 |
| 20260906012005 | 83 | 246 | 1.0 | 1.0 | 0.00 | 0.00 | 0.00 | 79 | 1012.7 |
| 20260906011502 | 85 | 263 | 1.0 | 1.0 | 0.00 | 0.00 | 0.00 | 75 | 1012.9 |
| 20260906010956 | 85 | 241 | 0.0 | 1.0 | 0.00 | 0.00 | 0.00 | 74 | 1012.7 |
| 20260906010452 | 84 | 263 | 1.0 | 2.0 | 0.00 | 0.00 | 0.00 | 71 | 1012.6 |
| 20260906005948 | 85 | 237 | 1.0 | 1.0 | 0.00 | 0.00 | 0.00 | 73 | 1012.6 |
| 20260906005447 | 86 | 250 | 0.0 | 0.0 | 0.00 | 0.00 | 0.00 | 74 | 1012.8 |
| 20260906004945 | 87 | 249 | 0.0 | 0.0 | 0.00 | 0.00 | 0.00 | 71 | 1012.6 |
| 20260906004446 | 87 | 249 | 0.0 | 1.0 | 0.00 | 0.00 | 0.00 | 68 | 1012.7 |
| 20260906003941 | 88 | 250 | 0.0 | 0.0 | 0.00 | 0.00 | 0.00 | 71 | 1012.8 |
| 20260906003436 | 88 | 250 | 0.0 | 0.0 | 0.00 | 0.00 | 0.00 | 66 | 1012.5 |
| 20260906002931 | 89 | 250 | 0.0 | 0.0 | 0.00 | 0.00 | 0.00 | 65 | 1012.8 |
| 20260906002431 | 89 | 250 | 0.0 | 0.0 | 0.00 | 0.00 | 0.00 | 64 | 1012.4 |
| 20260906001926 | 90 | 251 | 1.0 | 1.0 | 0.00 | 0.00 | 0.00 | 64 | 1012.6 |
| 20260906001422 | 91 | 251 | 0.0 | 0.0 | 0.00 | 0.00 | 0.00 | 58 | 1012.7 |
| 20260906000917 | 92 | 250 | 0.0 | 0.0 | 0.00 | 0.00 | 0.00 | 57 | 1012.5 |
| 20260906000412 | 93 | 252 | 1.0 | 1.0 | 0.00 | 0.00 | 0.00 | 58 | 1012.5 |
| 20260905235907 | 95 | 234 | 0.0 | 0.0 | 0.00 | 0.00 | 0.00 | 54 | 1012.6 |
| 20260905235401 | 95 | 234 | 0.0 | 0.0 | 0.00 | 0.00 | 0.00 | 52 | 1012.6 |
| 20260905234856 | 95 | 234 | 0.0 | 0.0 | 0.00 | 0.00 | 0.00 | 52 | 1012.6 |
| 20260905234351 | 93 | 234 | 0.0 | 0.0 | 0.00 | 0.00 | 0.00 | 55 | 1012.5 |
| 20260905233846 | 94 | 178 | 1.0 | 1.0 | 0.00 | 0.00 | 0.00 | 52 | 1012.7 |
| 20260905233341 | 95 | 246 | 0.0 | 0.0 | 0.00 | 0.00 | 0.00 | 59 | 1012.8 |
| 20260905232841 | 94 | 224 | 0.0 | 1.0 | 0.00 | 0.00 | 0.00 | 52 | 1012.4 |
| 20260905232337 | 95 | 233 | 0.0 | 0.0 | 0.00 | 0.00 | 0.00 | 53 | 1012.6 |
| 20260905231832 | 95 | 260 | 0.0 | 0.0 | 0.00 | 0.00 | 0.00 | 58 | 1012.5 |
| 20260905231333 | 96 | 239 | 0.0 | 0.0 | 0.00 | 0.00 | 0.00 | 52 | 1012.7 |
| 20260905230829 | 96 | 255 | 0.0 | 0.0 | 0.00 | 0.00 | 0.00 | 51 | 1012.7 |
| 20260905230327 | 96 | 255 | 1.0 | 1.0 | 0.00 | 0.00 | 0.00 | 49 | 1012.6 |
| 20260905225827 | 96 | 224 | 0.0 | 1.0 | 0.00 | 0.00 | 0.00 | 49 | 1012.6 |
| 20260905225322 | 96 | 337 | 1.0 | 3.0 | 0.00 | 0.00 | 0.00 | 48 | 1012.5 |
| 20260905224821 | 96 | 288 | 0.0 | 2.0 | 0.00 | 0.00 | 0.00 | 47 | 1012.6 |
| 20260905224317 | 96 | 101 | 3.0 | 3.0 | 0.00 | 0.00 | 0.00 | 44 | 1012.4 |
| 20260905223812 | 96 | 98 | 3.0 | 3.0 | 0.00 | 0.00 | 0.00 | 45 | 1012.4 |
| 20260905223310 | 96 | 55 | 3.0 | 6.0 | 0.00 | 0.00 | 0.00 | 43 | 1012.5 |
| 20260905222805 | 97 | 97 | 4.0 | 7.0 | 0.00 | 0.00 | 0.00 | 44 | 1012.5 |
| 20260905222306 | 97 | 149 | 5.0 | 6.0 | 0.00 | 0.00 | 0.00 | 44 | 1012.6 |
| 20260905221800 | 97 | 142 | 3.0 | 8.0 | 0.00 | 0.00 | 0.00 | 43 | 1012.8 |
| 20260905221256 | 98 | 152 | 3.0 | 5.0 | 0.00 | 0.00 | 0.00 | 42 | 1012.6 |
| 20260905220752 | 99 | 189 | 3.0 | 3.0 | 0.00 | 0.00 | 0.00 | 40 | 1012.7 |
| 20260905220248 | 100 | 158 | 3.0 | 3.0 | 0.00 | 0.00 | 0.00 | 39 | 1012.9 |
| 20260905215747 | 100 | 158 | 2.0 | 3.0 | 0.00 | 0.00 | 0.00 | 40 | 1012.8 |
| 20260905215243 | 100 | 224 | 1.0 | 3.0 | 0.00 | 0.00 | 0.00 | 38 | 1012.9 |
| 20260905214739 | 99 | 187 | 3.0 | 3.0 | 0.00 | 0.00 | 0.00 | 40 | 1012.7 |
| 20260905214234 | 99 | 102 | 4.0 | 5.0 | 0.00 | 0.00 | 0.00 | 41 | 1013.0 |
| 20260905213729 | 98 | 130 | 4.0 | 6.0 | 0.00 | 0.00 | 0.00 | 41 | 1013.2 |
| 20260905213226 | 98 | 148 | 1.0 | 3.0 | 0.00 | 0.00 | 0.00 | 41 | 1013.0 |
| 20260905212720 | 99 | 117 | 3.0 | 6.0 | 0.00 | 0.00 | 0.00 | 39 | 1013.0 |
| 20260905212219 | 99 | 216 | 1.0 | 5.0 | 0.00 | 0.00 | 0.00 | 40 | 1013.1 |
| 20260905211714 | 98 | 138 | 3.0 | 7.0 | 0.00 | 0.00 | 0.00 | 42 | 1013.1 |
| 20260905211209 | 98 | 119 | 9.0 | 10.0 | 0.00 | 0.00 | 0.00 | 42 | 1013.1 |
| 20260905210706 | 98 | 54 | 6.0 | 7.0 | 0.00 | 0.00 | 0.00 | 42 | 1013.1 |
| 20260905210206 | 98 | 150 | 2.0 | 6.0 | 0.00 | 0.00 | 0.00 | 41 | 1013.2 |
| 20260905205704 | 98 | 149 | 5.0 | 7.0 | 0.00 | 0.00 | 0.00 | 41 | 1013.3 |
| 20260905205159 | 98 | 105 | 6.0 | 7.0 | 0.00 | 0.00 | 0.00 | 41 | 1013.4 |
| 20260905204659 | 98 | 127 | 7.0 | 9.0 | 0.00 | 0.00 | 0.00 | 42 | 1013.6 |
| 20260905204154 | 97 | 111 | 4.0 | 7.0 | 0.00 | 0.00 | 0.00 | 42 | 1013.5 |
| 20260905203648 | 97 | 202 | 7.0 | 11.0 | 0.00 | 0.00 | 0.00 | 42 | 1013.5 |
| 20260905203144 | 99 | 173 | 5.0 | 8.0 | 0.00 | 0.00 | 0.00 | 40 | 1013.7 |
| 20260905202639 | 99 | 198 | 4.0 | 7.0 | 0.00 | 0.00 | 0.00 | 41 | 1013.8 |
| 20260905202135 | 99 | 120 | 8.0 | 10.0 | 0.00 | 0.00 | 0.00 | 41 | 1013.8 |
| 20260905201630 | 98 | 254 | 0.0 | 3.0 | 0.00 | 0.00 | 0.00 | 43 | 1014.0 |
| 20260905201130 | 98 | 58 | 2.0 | 5.0 | 0.00 | 0.00 | 0.00 | 41 | 1014.0 |
| 20260905200626 | 97 | 293 | 1.0 | 3.0 | 0.00 | 0.00 | 0.00 | 43 | 1014.0 |
| 20260905200121 | 98 | 1 | 3.0 | 6.0 | 0.00 | 0.00 | 0.00 | 42 | 1014.1 |
| 20260905195619 | 98 | 77 | 3.0 | 8.0 | 0.00 | 0.00 | 0.00 | 43 | 1014.0 |
| 20260905195115 | 98 | 35 | 4.0 | 6.0 | 0.00 | 0.00 | 0.00 | 42 | 1014.3 |
| 20260905194614 | 99 | 91 | 6.0 | 7.0 | 0.00 | 0.00 | 0.00 | 41 | 1014.3 |
| 20260905194114 | 99 | 66 | 4.0 | 6.0 | 0.00 | 0.00 | 0.00 | 42 | 1014.2 |
| 20260905193609 | 98 | 34 | 4.0 | 8.0 | 0.00 | 0.00 | 0.00 | 41 | 1014.3 |
| 20260905193104 | 98 | 31 | 3.0 | 7.0 | 0.00 | 0.00 | 0.00 | 43 | 1014.3 |
| 20260905192559 | 98 | 107 | 7.0 | 8.0 | 0.00 | 0.00 | 0.00 | 41 | 1014.3 |
| 20260905192055 | 98 | 186 | 2.0 | 6.0 | 0.00 | 0.00 | 0.00 | 44 | 1014.5 |
| 20260905191553 | 98 | 158 | 4.0 | 10.0 | 0.00 | 0.00 | 0.00 | 43 | 1014.1 |
| 20260905191048 | 98 | 66 | 3.0 | 6.0 | 0.00 | 0.00 | 0.00 | 43 | 1014.3 |
| 20260905190546 | 98 | 133 | 5.0 | 8.0 | 0.00 | 0.00 | 0.00 | 43 | 1014.3 |
| 20260905190045 | 98 | 132 | 6.0 | 8.0 | 0.00 | 0.00 | 0.00 | 45 | 1014.4 |
| 20260905185544 | 98 | 129 | 7.0 | 9.0 | 0.00 | 0.00 | 0.00 | 44 | 1014.8 |
| 20260905185044 | 97 | 125 | 3.0 | 5.0 | 0.00 | 0.00 | 0.00 | 43 | 1014.2 |
| 20260905184539 | 97 | 83 | 4.0 | 6.0 | 0.00 | 0.00 | 0.00 | 44 | 1014.7 |
| 20260905184038 | 97 | 117 | 3.0 | 8.0 | 0.00 | 0.00 | 0.00 | 45 | 1014.7 |
| 20260905183537 | 97 | 78 | 6.0 | 7.0 | 0.00 | 0.00 | 0.00 | 45 | 1014.7 |
| 20260905183032 | 97 | 114 | 7.0 | 9.0 | 0.00 | 0.00 | 0.00 | 45 | 1015.1 |
| 20260905182527 | 98 | 81 | 5.0 | 7.0 | 0.00 | 0.00 | 0.00 | 45 | 1015.1 |
| 20260905182027 | 98 | 172 | 5.0 | 6.0 | 0.00 | 0.00 | 0.00 | 46 | 1014.9 |
| 20260905181522 | 97 | 81 | 2.0 | 5.0 | 0.00 | 0.00 | 0.00 | 44 | 1015.2 |
| 20260905181021 | 97 | 118 | 9.0 | 10.0 | 0.00 | 0.00 | 0.00 | 45 | 1015.4 |
| 20260905180516 | 96 | 80 | 3.0 | 7.0 | 0.00 | 0.00 | 0.00 | 46 | 1015.1 |